Powrót do katalogu

STARLINK-5089

AktywnyŁącznośćVLEO
NORAD 56148·PAYLOAD·🇺🇸 United States

Wystrzelony Mar 29, 2023 z Cape Canaveral Space Force Station

Loading…

Następne Przeloty (najbliższe 24 godziny)

TLE

ŚwieżeSource: CelesTrak SupGP

Epoka: Sep 14, 2026, 21:43 UTC

1 56148C 23046BH  26257.90534722 -.00002370  00000+0 -85881-4 0  2577
2 56148  43.0006 121.7027 0001165 250.7203 345.0058 15.27565521    16

Śledź STARLINK-5089 w czasie rzeczywistym z AllMySat

Download on the App Store